Theta_e
315 315 316 314 315 302 309 309 304 307 312 309 304 305 306 305 302 301 307 307 310 315 317 317 319 320 321 322 325 327 326 329 331 331 333 333 334 335 338 337 338 338 338 341 341 350 346 352 357 359 361 360 360 360 360 351 344 345 346 347 351 352 355
317 318 317 316 316 315 310 304 308 313 315 312 306 299 303 301 297 302 306 302 305 306 304 317 316 317 318 323 322 324 328 328 327 328 333 336 335 337 335 338 338 338 338 340 341 344 349 350 356 358 360 360 359 360 359 362 360 354 352 353 355 355 353
316 318 317 313 315 316 310 308 316 306 303 302 308 304 297 297 298 300 306 308 310 313 311 315 314 316 318 320 325 326 327 330 329 330 332 334 334 337 335 336 337 337 338 338 347 343 344 352 356 355 358 359 354 352 357 363 363 363 362 362 362 363 362
315 316 314 306 310 315 316 317 312 314 310 305 303 304 305 303 298 298 300 306 306 316 317 320 321 322 322 323 325 327 328 329 329 334 336 333 334 336 337 336 335 333 338 342 344 345 345 346 352 352 354 353 351 349 349 353 364 364 361 360 360 359 361
314 308 311 309 310 309 311 311 310 311 310 313 311 310 305 302 300 301 300 298 308 317 322 323 324 324 325 330 331 333 335 336 337 339 340 340 339 338 338 336 333 339 347 346 347 348 348 352 354 353 350 348 348 348 344 347 354 356 359 360 359 359 361
308 309 315 315 314 314 311 310 308 309 307 305 302 306 309 307 304 302 300 299 312 320 328 327 327 328 329 331 333 332 335 337 338 339 342 343 342 342 340 338 338 338 342 343 345 350 354 355 357 355 355 353 351 349 348 348 348 351 353 353 361 359 359
309 313 316 318 317 316 314 312 309 311 310 309 306 297 304 307 307 309 306 303 308 324 327 329 329 329 330 332 332 332 334 336 338 340 342 342 341 339 339 338 338 337 337 341 343 350 351 354 355 356 357 355 355 355 354 354 354 351 351 354 359 360 359
314 317 317 318 319 317 313 313 314 312 310 311 308 307 309 305 305 303 304 303 310 324 328 329 329 330 331 331 329 330 332 335 337 339 340 340 338 336 337 341 336 334 337 340 343 349 352 352 353 354 357 358 358 358 356 356 355 356 357 357 358 361 360
307 309 313 313 316 315 311 310 314 315 314 314 314 313 312 305 306 305 302 300 308 321 328 329 329 327 326 327 329 330 329 332 334 336 339 337 334 333 333 335 338 336 340 345 349 349 350 352 353 354 355 356 356 357 357 356 358 358 360 361 360 362 361
297 299 300 302 314 310 311 313 313 314 313 312 311 306 309 302 309 308 306 308 316 322 326 324 324 324 324 326 325 326 331 331 332 333 335 337 333 331 331 332 334 334 339 346 347 347 349 348 350 352 354 354 353 354 355 356 356 357 358 359 361 361 361
304 306 311 313 314 312 308 311 312 312 313 314 313 311 309 305 308 306 315 314 316 318 320 321 321 322 324 323 325 325 325 328 332 334 336 335 337 334 331 331 334 339 343 343 342 344 345 345 347 349 348 350 351 353 354 354 357 357 358 358 361 360 359
312 313 313 314 314 310 311 310 310 312 312 312 311 308 306 316 307 302 316 319 313 315 317 319 321 322 323 325 324 326 328 329 330 331 333 334 333 334 336 335 335 337 341 342 343 343 344 345 346 346 346 345 349 351 351 353 356 356 357 358 358 358 359
312 313 313 314 313 313 313 312 312 311 312 311 309 309 312 311 306 303 317 318 314 314 318 320 321 322 323 323 326 328 328 327 328 330 329 328 328 329 329 332 334 333 334 337 338 339 342 345 346 346 344 344 346 348 352 353 352 355 356 358 357 355 357
311 312 312 314 312 312 311 312 312 312 312 311 311 311 312 311 309 310 311 317 314 317 320 322 323 325 325 325 326 327 327 326 328 329 327 325 324 325 327 329 330 333 333 334 335 336 337 337 339 340 345 344 345 344 345 351 352 354 354 354 355 355 355
308 311 312 312 312 312 310 311 312 312 312 310 311 311 312 314 313 314 313 313 314 321 324 324 326 326 326 328 327 327 328 327 326 325 324 323 323 324 327 330 331 331 333 333 334 335 336 336 338 339 340 345 347 346 346 346 347 352 354 351 352 353 353
306 309 310 310 310 309 308 309 310 311 310 308 309 310 312 310 310 312 312 311 315 321 326 327 327 326 326 326 327 326 326 325 324 322 322 323 324 326 328 330 331 333 332 332 332 333 336 337 337 339 340 340 344 345 347 346 346 349 351 350 349 351 354
304 309 309 309 309 308 304 305 310 313 312 312 313 314 316 318 317 313 314 314 321 324 327 324 324 327 326 326 325 326 328 327 327 325 326 325 326 327 328 328 330 332 332 333 335 335 337 341 338 339 340 340 341 344 344 347 347 347 347 348 348 349 353
304 307 307 308 304 297 301 317 319 316 312 313 311 312 316 319 319 319 322 323 325 326 325 326 324 325 325 327 327 327 325 326 324 325 326 325 325 325 326 326 328 329 331 332 334 336 337 338 338 340 341 341 343 345 345 346 345 346 346 345 345 347 349
303 306 306 301 296 298 316 320 319 318 317 316 314 315 318 321 323 322 322 323 325 326 326 327 328 329 329 329 327 328 327 327 324 323 324 324 323 327 329 328 328 332 333 334 337 336 336 336 339 340 341 344 344 344 343 342 344 345 345 344 344 345 346
305 303 302 294 297 312 317 318 318 318 316 317 314 312 320 321 321 323 323 325 328 329 328 329 330 329 330 329 328 328 326 324 323 322 322 324 324 326 328 331 334 332 331 334 336 337 338 337 339 341 343 345 343 342 343 342 343 344 344 343 343 344 345
299 302 302 301 312 308 312 313 316 317 314 315 314 309 316 324 324 324 324 325 326 325 326 327 329 329 327 325 327 328 327 325 325 324 324 323 324 324 326 325 328 336 338 336 337 338 338 339 340 343 344 343 342 341 340 340 342 342 342 341 342 343 343
307 302 300 301 301 299 307 316 319 320 320 319 318 313 314 322 323 323 324 323 324 323 324 324 328 327 322 319 320 324 325 325 324 324 324 325 325 324 325 327 326 331 332 331 333 335 337 340 343 343 342 342 340 339 339 339 339 338 339 338 340 341 342
306 305 301 300 299 306 316 315 317 319 322 318 319 312 308 320 324 324 323 322 322 322 322 323 323 319 313 315 316 322 325 324 324 323 324 324 324 324 326 325 325 325 326 326 332 335 338 336 339 340 340 339 337 337 337 337 338 337 337 338 339 340 340
305 303 301 300 310 308 313 316 317 319 320 319 315 301 304 319 322 322 323 321 321 321 323 321 319 316 312 314 318 322 323 323 324 325 323 323 324 324 325 326 327 327 331 327 325 324 324 331 335 338 338 337 335 335 336 336 336 336 337 338 340 341 342
306 306 304 309 310 315 316 317 320 321 320 315 305 300 310 320 322 323 322 322 321 321 320 319 316 319 320 321 323 323 323 323 323 324 324 325 324 324 324 325 333 326 326 325 323 324 327 333 334 337 336 335 335 336 337 336 336 336 338 340 340 340 341
305 305 304 306 308 313 317 320 321 322 316 306 305 315 324 322 321 322 321 322 321 321 321 320 320 320 321 322 322 322 323 322 322 323 323 324 324 325 327 330 328 325 324 325 327 325 327 328 331 335 336 335 336 337 336 335 337 340 341 341 341 341 340
308 309 306 301 296 312 318 319 319 320 312 312 321 322 321 321 321 320 321 321 321 321 320 321 321 321 320 320 321 321 321 321 321 321 322 322 322 322 323 324 325 324 324 324 325 326 327 330 333 335 336 335 335 336 334 336 339 340 341 341 340 340 340
303 304 303 301 309 315 318 317 311 316 317 320 321 320 318 321 320 319 320 321 321 321 320 319 319 320 319 321 322 321 321 321 321 322 323 323 323 322 323 323 324 325 324 326 329 329 329 333 334 336 336 333 334 333 334 338 339 340 339 339 339 339 338
309 307 312 315 318 317 318 319 319 319 321 322 322 321 320 319 320 322 320 319 321 321 320 320 319 318 319 320 320 319 320 320 321 321 322 322 323 323 323 323 326 326 324 326 329 330 331 331 334 336 336 334 333 332 335 338 338 337 337 337 336 336 336
317 318 317 318 317 317 317 318 319 319 320 321 322 320 320 320 321 322 320 320 320 320 321 318 319 319 319 319 319 320 320 320 321 323 323 323 324 323 323 324 325 325 326 327 329 329 330 332 333 335 335 334 332 333 336 336 336 335 335 335 335 335 335
308 302 317 316 316 317 318 317 319 320 320 320 321 321 321 321 321 320 322 321 321 320 320 319 318 318 319 319 320 320 320 320 320 320 321 322 323 323 323 324 327 326 326 325 326 327 327 331 332 332 334 334 334 335 335 333 333 335 335 334 334 334 334
309 312 315 317 318 319 319 319 318 317 319 320 321 321 321 322 322 321 321 321 320 320 319 320 319 319 320 319 320 318 318 319 320 320 321 323 322 324 325 326 328 326 326 325 326 327 328 330 332 332 332 333 334 334 333 333 333 334 333 333 332 332 332
313 316 316 316 317 317 318 319 320 320 320 320 320 320 320 320 321 321 321 321 320 320 321 322 321 319 319 319 320 318 318 319 319 320 321 324 324 325 325 328 329 327 327 326 327 327 328 330 331 332 332 333 334 334 334 335 335 334 332 333 332 332 332
309 309 312 315 310 309 314 316 317 318 320 321 319 320 319 319 319 320 319 319 321 321 321 321 320 319 319 319 320 318 319 319 320 321 322 322 322 323 324 325 326 328 329 329 327 327 328 330 331 331 331 332 334 332 334 333 334 332 331 330 330 330 331
308 314 316 318 316 316 316 317 319 319 320 320 319 319 319 319 320 320 319 318 318 319 319 320 319 319 318 318 319 318 318 320 322 322 322 322 322 323 324 325 326 326 327 328 328 328 329 330 330 330 330 330 332 332 333 332 331 330 330 329 328 329 329
317 318 317 318 316 313 315 317 318 318 321 319 318 318 319 319 318 319 319 318 317 317 318 319 319 319 318 317 317 318 319 319 321 321 323 324 324 324 324 323 325 327 326 327 326 326 328 328 329 330 328 329 331 331 332 333 334 333 331 329 327 328 328
316 320 320 319 318 318 319 319 318 319 320 319 317 317 318 318 319 319 318 318 318 318 317 317 317 318 317 318 319 319 319 320 322 323 325 326 326 326 326 327 326 326 326 326 327 327 327 327 327 328 328 328 329 331 332 330 329 328 329 329 327 327 328
Wind_Speed
11 10 3 11 6 9 6 9 4 6 9 11 10 8 7 10 7 3 5 8 10 11 11 9 8 8 7 8 12 12 9 7 7 9 8 7 8 6 3 4 5 4 3 7 8 4 10 6 6 5 5 5 5 4 10 16 11 6 7 6 6 6 5
13 6 6 11 11 7 8 10 7 12 8 8 7 8 3 5 6 2 7 10 4 3 5 4 8 7 7 16 12 8 9 9 8 7 5 3 4 3 1 7 10 9 6 9 4 5 3 8 6 5 5 3 5 5 7 8 11 12 13 11 11 12 11
2 7 4 9 12 7 10 11 11 9 4 6 1 4 6 5 5 4 10 10 10 9 6 3 6 5 7 11 11 11 8 7 5 4 2 2 1 1 2 4 5 1 3 1 2 9 12 1 6 3 2 4 4 5 5 7 7 6 5 4 4 4 4
5 6 2 6 3 11 10 8 7 7 5 7 5 3 8 7 7 5 4 8 4 3 3 6 6 9 8 8 8 7 7 4 5 1 3 3 1 4 4 3 2 4 9 2 3 5 1 10 5 2 2 4 5 3 5 5 7 6 5 4 2 2 2
6 6 5 2 2 5 4 4 6 7 6 6 4 2 4 7 8 1 2 3 4 4 3 2 5 7 9 11 8 6 5 6 5 5 5 7 7 7 5 3 4 10 10 10 10 4 1 7 4 4 4 4 4 5 5 6 6 3 4 4 4 3 2
5 8 5 9 7 10 8 7 8 7 8 8 7 5 1 6 5 5 6 4 6 5 3 3 4 5 7 6 6 6 6 6 6 6 7 7 8 10 10 12 11 9 12 14 11 9 2 3 5 6 7 7 5 5 5 6 5 4 2 2 4 3 3
3 7 6 5 8 7 9 7 10 9 7 7 6 4 6 5 7 9 7 4 4 1 0 2 2 5 8 6 4 6 6 6 6 6 7 7 7 8 10 12 11 9 10 9 10 7 7 7 6 6 7 8 9 9 9 7 7 6 6 4 2 1 1
11 14 20 10 14 12 10 8 8 8 4 6 7 8 9 9 10 9 8 2 5 7 1 3 5 6 7 4 5 5 6 7 7 6 7 8 7 7 9 8 7 11 10 10 11 4 5 7 8 9 8 7 8 9 9 9 9 9 8 7 4 1 2
4 11 6 8 6 9 9 10 12 7 7 7 8 9 7 9 6 10 9 3 4 8 5 4 3 4 5 3 6 5 5 5 5 6 7 8 7 8 11 10 8 6 13 3 4 7 7 7 8 8 9 8 8 9 9 9 9 10 8 7 8 7 4
1 7 4 6 3 5 7 14 10 9 12 12 8 7 7 6 7 12 5 4 8 12 12 10 2 3 2 6 6 2 5 5 4 5 6 9 10 7 7 5 3 6 10 4 6 8 8 8 8 8 8 9 10 10 11 11 10 9 9 9 9 8 8
7 7 4 13 10 7 11 10 14 14 12 12 10 7 6 7 6 10 5 4 10 9 10 13 12 7 7 6 6 1 3 2 3 2 4 5 7 14 15 12 8 8 3 7 8 8 8 9 9 8 9 9 10 9 10 11 10 10 9 9 8 9 9
10 10 11 10 9 12 12 13 13 12 12 10 11 8 8 6 7 5 7 7 7 8 12 7 9 11 11 4 5 8 6 3 5 4 4 7 7 7 7 5 5 5 6 6 8 8 8 8 8 8 9 9 9 9 9 9 9 9 8 9 8 8 8
11 13 13 11 12 12 13 13 14 14 11 11 13 11 10 11 7 9 8 7 3 2 6 4 4 4 8 9 10 7 8 6 0 4 4 4 8 8 8 7 6 7 8 7 8 8 8 8 8 7 7 8 8 8 8 8 10 9 9 8 8 9 9
14 14 14 13 14 14 15 14 14 13 14 14 11 8 9 12 13 10 10 6 4 4 4 6 7 7 8 7 7 6 6 4 2 3 0 5 7 7 6 6 7 7 7 7 7 8 8 9 9 9 6 5 7 7 8 7 8 8 9 8 8 8 8
13 14 14 15 15 15 16 14 13 12 13 15 12 4 8 10 8 7 8 6 4 7 6 9 8 6 6 7 7 6 3 2 3 4 6 6 6 6 5 5 6 6 7 7 7 7 8 8 8 7 8 7 6 6 7 8 9 8 7 9 9 7 6
11 12 12 12 13 15 14 14 11 9 11 13 11 5 4 5 7 9 10 6 6 5 6 7 6 6 5 5 4 4 3 5 4 4 5 5 5 6 6 5 5 5 6 7 7 7 7 7 8 7 7 8 7 7 7 7 7 8 7 7 9 8 5
11 14 13 14 18 16 11 11 8 10 9 9 10 7 9 8 9 9 7 3 5 4 4 3 3 6 8 8 6 3 5 3 3 1 3 4 4 4 5 6 6 4 5 5 5 6 5 5 6 7 7 7 7 6 7 7 7 7 7 7 7 9 5
10 13 14 13 11 11 7 7 5 6 9 8 6 6 6 7 8 5 4 4 4 3 2 4 6 7 7 6 3 3 3 3 3 3 3 1 3 4 4 6 5 5 5 5 4 5 5 6 7 6 6 6 6 6 6 7 7 7 7 6 7 7 6
9 9 11 9 10 8 8 6 8 5 6 3 6 7 9 10 7 6 4 6 8 8 7 5 8 7 4 2 3 3 1 3 2 7 8 7 8 6 6 6 6 6 5 5 5 6 7 7 7 6 5 5 4 5 6 8 7 7 6 7 6 7 7
8 9 7 8 5 8 4 9 7 7 4 10 5 2 12 11 8 4 6 4 3 0 2 8 10 7 2 2 4 3 4 4 1 7 4 3 5 7 5 5 5 6 6 6 6 6 6 6 6 6 5 4 5 5 6 7 7 7 7 7 7 7 6
9 7 6 10 4 6 8 6 11 9 8 6 3 2 5 6 4 7 4 3 3 0 2 5 8 7 2 2 3 2 6 10 8 8 12 10 10 10 10 10 8 6 7 7 7 6 7 7 7 4 4 4 5 5 6 7 6 7 7 8 8 8 7
6 7 8 6 8 3 7 7 7 9 7 5 4 1 8 8 6 4 1 4 4 4 5 5 8 6 2 4 3 6 7 6 9 7 7 10 10 11 10 9 9 7 8 9 8 7 9 6 4 5 6 6 6 6 6 7 7 8 8 8 8 8 8
7 8 6 7 3 6 6 7 9 8 6 8 5 5 4 4 7 4 4 3 2 5 5 5 6 4 4 3 0 3 5 7 7 10 11 10 11 10 9 10 11 11 11 11 10 8 6 7 6 6 6 6 6 6 7 7 7 8 8 8 8 8 8
6 7 8 4 4 5 9 10 9 9 8 8 4 6 4 2 5 7 6 7 7 6 6 6 4 5 4 5 1 5 9 9 11 11 11 11 11 10 10 11 11 12 10 11 10 11 11 9 8 7 7 6 8 8 7 7 8 8 8 8 8 8 8
7 8 7 7 4 6 11 11 7 11 11 8 7 4 3 3 5 6 7 6 6 6 7 7 6 5 4 6 8 9 9 10 9 10 10 10 11 12 11 11 11 11 10 10 11 12 10 9 9 8 8 8 8 8 8 8 9 8 8 8 9 9 8
7 7 7 8 7 6 12 9 11 13 10 3 5 1 4 5 4 5 6 6 7 7 7 7 6 7 9 9 10 9 9 10 11 10 10 10 10 9 10 10 11 10 11 11 12 13 12 13 12 9 9 9 9 9 8 10 10 9 9 9 8 9 9
7 6 6 1 2 8 12 10 8 15 7 5 3 2 1 2 4 2 6 7 6 5 6 7 8 9 10 10 10 10 11 11 11 11 10 11 11 11 11 11 12 12 12 12 12 13 13 12 10 9 10 11 10 10 11 11 10 9 9 9 9 9 9
7 5 5 3 4 7 10 10 7 8 9 9 6 4 4 5 6 10 9 5 4 7 7 7 9 9 10 9 10 11 12 12 12 12 12 12 13 14 13 14 14 14 13 11 10 12 11 10 9 9 9 10 10 12 13 10 9 9 10 10 9 9 9
4 5 3 4 1 4 6 7 8 10 11 10 14 13 12 10 8 10 7 9 9 10 9 9 9 9 9 11 11 12 12 12 12 12 13 12 12 13 13 13 13 13 14 13 11 11 10 11 9 9 9 10 12 13 12 10 11 11 11 11 10 10 10
3 4 7 6 5 3 4 6 8 11 10 12 10 11 8 8 7 6 7 9 9 9 9 9 9 9 11 11 12 12 12 12 12 11 12 12 13 13 13 13 13 13 14 13 12 12 11 10 10 8 9 10 12 12 12 11 12 12 12 12 11 11 11
5 2 2 6 9 9 9 12 11 9 8 7 7 7 7 7 8 7 7 7 9 9 10 11 10 11 11 13 12 12 11 12 12 13 13 12 12 13 13 13 12 12 12 13 12 12 13 11 10 10 11 10 10 10 11 12 13 12 12 12 12 11 11
4 7 3 2 3 2 12 9 9 10 11 11 11 8 7 7 6 7 9 9 10 9 9 10 11 11 12 12 12 13 12 11 11 11 12 12 12 12 12 12 12 13 12 13 13 13 12 11 11 11 11 10 10 11 12 12 12 11 11 11 12 13 14
9 10 13 12 4 11 9 8 8 7 8 9 9 10 8 9 9 8 9 8 10 10 10 9 10 12 12 13 12 14 15 14 13 13 13 12 12 12 12 11 11 10 11 13 13 14 13 11 10 10 11 10 10 11 11 11 10 11 11 12 13 15 15
8 8 8 11 6 4 7 8 10 9 8 8 8 8 9 9 10 10 11 11 10 11 11 12 11 12 10 12 11 13 12 12 13 13 13 13 15 14 14 13 14 13 12 12 14 14 12 10 10 10 11 10 10 11 11 10 10 10 10 11 12 11 11
7 9 9 10 8 6 7 7 6 5 8 8 9 10 9 9 10 10 11 12 12 11 12 11 12 12 12 14 13 12 12 12 11 12 13 14 14 15 16 15 14 14 13 12 13 12 11 11 11 11 11 12 11 11 10 10 9 9 10 10 10 10 10
9 9 8 7 7 7 7 9 9 6 7 8 9 9 9 9 10 10 10 12 12 11 11 12 12 13 13 13 13 14 14 14 15 15 15 15 15 15 15 15 14 15 15 14 13 13 11 11 11 11 12 12 11 10 9 8 7 7 9 11 11 12 12
6 5 5 3 3 5 7 7 8 9 8 8 9 10 10 11 10 10 11 11 12 13 12 11 11 11 13 14 14 14 14 15 15 14 13 11 12 12 12 14 14 13 12 12 11 11 11 13 13 12 12 13 12 10 9 10 11 11 11 10 12 12 12
Wind_Direction
284 262 288 256 281 275 0 334 262 352 334 319 340 306 266 291 259 252 338 121 107 97 102 99 96 112 124 122 95 64 45 53 61 60 39 20 26 44 68 75 71 25 304 279 296 338 8 340 349 22 21 46 50 65 111 142 167 175 183 194 176 202 197
219 254 315 299 295 280 279 266 353 353 298 310 289 282 309 286 315 8 79 88 76 163 89 342 103 91 111 100 108 99 72 43 39 55 39 21 7 25 110 142 157 168 214 258 312 24 334 355 338 28 3 5 64 41 74 109 141 164 180 183 184 185 183
108 161 247 258 240 259 280 284 343 298 330 285 323 350 299 302 280 321 102 86 54 10 55 28 72 55 42 38 30 85 98 88 67 50 146 138 324 335 33 38 29 337 182 243 52 39 331 7 272 31 15 31 56 83 74 91 95 100 121 155 171 168 183
17 306 181 271 277 190 220 290 263 228 254 273 305 339 322 334 310 295 74 70 96 351 350 350 8 15 7 61 86 37 62 83 107 80 330 94 40 355 40 49 327 340 349 353 67 129 205 312 310 324 48 51 32 6 118 113 122 133 129 136 144 193 185
301 296 224 290 38 326 258 262 320 333 291 8 333 118 4 318 307 0 242 221 144 141 113 43 20 11 34 48 71 73 58 62 65 54 25 16 9 359 337 351 27 10 4 6 355 21 128 266 324 345 5 63 44 7 17 69 84 72 122 158 172 167 192
63 291 323 339 319 343 308 330 311 333 325 318 311 314 170 292 325 298 305 355 114 85 50 52 80 69 59 65 81 81 78 73 69 64 57 37 24 8 24 33 15 1 358 5 349 309 358 14 357 19 357 356 19 34 11 28 31 31 0 353 127 160 162
345 282 37 286 326 313 295 312 304 317 333 308 299 322 307 282 278 297 271 288 96 335 76 282 359 80 99 98 103 105 94 82 76 74 62 53 34 17 34 36 9 358 353 340 300 321 15 21 13 25 18 9 5 5 7 12 1 27 5 7 68 72 161
331 327 349 335 16 346 307 283 264 251 285 17 316 298 332 318 321 311 321 35 123 120 231 45 17 28 65 74 41 55 79 79 78 74 85 75 43 18 15 55 28 1 310 257 255 12 1 26 23 24 25 13 11 9 1 4 1 1 4 357 359 343 336
332 300 280 326 325 338 353 320 296 340 323 299 312 314 306 300 327 330 315 18 165 122 130 110 159 94 69 78 78 23 64 61 66 79 81 88 54 22 23 24 33 318 268 276 13 28 31 28 32 24 17 13 16 6 359 5 1 358 358 348 351 352 348
341 296 326 318 35 304 300 278 291 305 327 312 309 303 336 316 346 323 338 67 97 132 146 130 130 104 291 315 69 105 79 59 42 59 76 108 111 61 26 352 300 249 280 5 33 32 32 28 22 26 19 17 16 7 5 4 357 358 352 350 351 342 339
291 294 261 228 255 212 236 290 306 299 296 308 301 306 289 300 356 309 74 21 134 132 149 155 162 180 176 192 175 17 73 124 90 60 81 79 107 149 172 195 230 257 336 28 36 35 33 25 24 23 19 15 14 6 7 6 358 359 357 353 348 337 339
271 277 270 274 271 278 277 278 280 287 291 291 300 306 310 322 299 308 151 138 174 181 181 173 167 164 165 170 118 147 132 56 240 145 134 83 66 45 53 68 91 75 58 45 37 38 32 32 26 24 19 12 7 1 3 1 1 1 357 346 344 343 342
275 283 293 292 279 274 282 281 290 294 302 295 287 306 313 313 293 313 156 178 105 25 91 155 150 172 162 154 150 134 153 185 185 9 48 73 68 52 44 38 41 39 40 38 34 28 23 23 26 31 26 9 353 359 0 358 356 358 352 347 350 347 344
299 298 294 295 292 291 285 274 268 277 293 305 303 288 307 309 308 306 307 76 55 49 79 106 103 50 63 77 59 44 29 39 332 54 82 75 64 55 45 34 25 25 28 30 29 28 19 17 9 12 17 13 351 3 348 358 349 356 344 349 347 352 358
280 272 278 282 276 277 282 286 269 258 273 283 278 308 303 327 327 343 340 2 2 61 45 70 75 79 80 61 51 44 62 45 354 80 83 48 32 47 40 38 16 19 13 21 15 18 12 12 6 4 356 352 354 5 351 356 348 341 349 345 341 358 358
288 287 275 282 279 261 266 283 278 271 272 280 295 309 10 329 316 318 312 330 52 76 79 72 77 94 90 89 96 104 353 42 49 27 35 47 35 18 11 10 0 12 6 3 2 6 1 358 3 349 357 342 343 360 351 357 340 330 351 342 344 341 358
293 298 306 297 301 311 305 288 342 7 34 1 355 331 358 22 3 343 22 90 172 103 103 122 71 65 70 56 55 51 62 12 16 328 44 2 20 2 358 353 340 15 356 345 342 354 344 353 347 349 336 339 338 343 344 348 338 340 348 346 340 331 354
291 294 294 299 291 276 290 59 25 4 333 6 328 16 36 40 11 50 68 68 98 104 117 71 82 71 51 75 93 81 56 349 349 306 132 94 76 358 5 345 353 29 351 343 347 341 353 349 344 335 334 324 329 336 334 341 333 342 334 344 330 321 333
276 288 285 277 267 285 60 72 67 55 51 3 21 40 35 40 39 37 94 72 43 27 1 88 109 63 85 74 48 43 107 257 303 322 11 28 18 356 3 350 5 9 339 338 5 15 360 348 325 325 308 307 321 329 346 327 329 328 336 325 328 317 323
263 268 272 275 309 82 85 60 44 35 272 73 311 127 54 47 22 0 40 57 132 68 134 52 52 92 105 88 70 309 285 203 313 314 295 12 358 337 339 350 20 348 348 30 15 359 337 315 307 287 307 350 356 343 329 315 316 326 324 322 317 320 320
284 291 279 270 63 238 65 49 30 10 16 8 349 30 97 104 69 22 48 19 50 120 48 93 109 118 137 350 307 300 273 319 354 329 333 342 343 334 340 346 351 345 36 18 1 334 319 300 290 321 351 357 335 330 317 315 318 314 316 316 320 317 320
241 259 273 289 275 298 42 22 19 23 5 357 39 358 88 21 78 117 18 85 32 0 57 84 134 120 55 30 300 289 323 338 303 316 353 347 334 331 335 344 334 359 13 350 333 312 284 290 334 1 353 335 340 320 316 318 314 309 309 309 311 314 316
295 274 266 263 324 75 337 34 18 6 14 332 59 277 105 5 357 77 352 67 35 11 2 1 327 308 293 139 5 320 258 286 331 344 339 337 329 328 337 339 335 359 345 326 298 291 324 338 3 353 350 344 331 327 317 312 309 307 305 308 309 310 310
262 297 289 330 76 69 19 6 353 4 353 322 342 276 96 307 355 27 18 26 28 17 358 350 337 11 349 7 333 333 328 340 338 336 334 324 326 331 337 328 349 341 315 298 320 336 332 347 353 348 351 340 325 311 307 304 301 302 307 307 310 305 299
265 233 252 127 97 49 348 341 356 7 335 311 279 341 58 302 34 47 53 44 29 24 353 3 350 37 351 338 345 341 336 339 336 331 319 322 332 331 329 333 348 311 312 326 336 330 331 346 344 349 339 322 310 309 308 308 303 306 312 314 310 310 304
297 298 334 68 85 17 331 348 24 3 306 335 44 135 265 31 36 46 16 57 40 353 5 350 5 349 348 345 333 324 340 339 320 312 320 323 319 320 328 329 307 315 324 335 334 328 334 332 335 329 322 316 317 315 313 306 309 313 314 313 310 308 307
314 298 287 216 40 38 10 348 32 21 21 53 4 334 33 58 3 43 76 25 15 2 351 347 348 334 336 323 322 336 333 320 317 320 322 326 325 328 323 312 323 327 331 330 332 330 327 326 321 320 322 320 318 316 309 309 312 312 312 311 307 306 302
336 328 14 48 19 32 45 39 46 47 46 16 3 282 43 11 34 12 345 59 338 352 0 350 329 330 314 323 341 331 320 319 322 325 326 326 324 319 324 328 331 337 327 326 329 324 318 318 320 319 320 318 315 312 309 314 314 316 313 311 311 307 303
356 34 85 75 0 47 53 81 97 87 49 30 19 21 35 20 17 12 354 0 347 359 333 330 327 313 334 334 330 317 322 323 324 327 326 322 322 324 323 324 330 329 325 320 315 313 318 315 315 318 319 315 313 310 315 319 317 314 313 312 313 312 308
66 90 43 128 101 19 32 23 39 40 63 48 24 24 17 27 6 356 346 334 349 329 337 328 322 334 329 322 314 320 325 323 317 319 320 323 327 325 322 318 323 320 313 313 316 314 314 318 320 322 320 318 314 314 316 313 313 311 314 318 318 313 309
261 106 57 19 55 56 45 35 33 59 53 47 42 18 23 351 357 339 343 344 321 325 330 323 336 328 323 317 320 323 318 313 322 321 322 324 321 317 314 317 313 312 315 311 310 316 320 324 322 318 315 313 312 315 314 316 316 321 324 321 315 311 310
42 93 11 58 114 23 56 47 39 21 23 14 12 8 358 337 334 350 341 332 323 333 323 340 328 319 313 315 319 311 306 312 316 321 319 320 319 315 314 312 314 314 313 315 320 324 320 318 316 316 314 316 318 318 318 320 321 321 318 316 312 308 306
123 67 38 16 31 74 46 50 51 43 23 359 356 352 337 334 344 345 338 327 319 323 321 325 318 312 317 316 318 318 323 324 325 323 323 321 316 316 316 323 323 318 326 324 321 316 316 318 317 319 320 319 321 319 321 323 326 330 327 321 316 313 313
39 35 32 12 1 5 45 27 27 11 17 359 344 337 336 346 335 341 329 325 327 326 327 323 318 311 315 312 317 313 310 311 317 317 316 317 318 321 323 321 319 320 320 324 326 324 323 326 324 323 323 324 325 327 326 337 345 334 327 321 318 311 309
30 30 41 24 9 29 21 359 19 342 29 353 342 340 344 346 341 330 328 329 334 328 322 314 310 314 319 321 323 316 316 320 315 314 320 324 328 325 322 319 319 322 324 324 320 322 327 329 327 329 329 329 326 329 349 350 339 325 315 317 315 312 312
67 37 49 21 17 355 7 14 334 6 36 349 345 343 344 345 332 332 337 328 322 317 310 315 317 324 324 318 319 322 326 326 328 327 333 335 327 323 321 322 327 329 324 323 327 331 332 330 333 335 330 326 329 343 343 329 322 313 317 326 324 323 317
51 26 33 25 16 15 22 359 355 9 0 357 344 337 343 334 328 342 322 317 309 310 313 312 317 316 324 342 344 339 334 330 327 334 330 326 324 324 324 328 328 319 317 327 336 336 335 335 337 334 330 330 339 343 338 329 331 334 337 329 326 323 319